Tracking 31027 objects as of 19-Jul-2025
HD Live streaming from Space Station
objects crossing your sky now

STARLINK-5270

Track STARLINK-5270 now!
10-day predictions
STARLINK-5270 is classified as:


NORAD ID: 55299
Int'l Code: 2023-010AG
Perigee: 576.7 km
Apogee: 581.7 km
Inclination: 70.0 °
Period: 96.1 minutes
Semi major axis: 6950 km
RCS: Unknown
Launch date: January 19, 2023
Source: United States (US)
Launch site: AIR FORCE WESTERN TEST RANGE (AFWTR)
Your satellite tracking list
STARLINK-30103
Track 1 satellite(s)




NASA's NSSDC Master Catalog

Two Line Element Set (TLE):
1 55299U 23010AG  25199.50223863  .00000086  00000-0  14993-4 0  9995
2 55299  69.9985 254.7858 0003600 268.5591  91.5156 14.98331889139073
Source of the keplerian elements: AFSPC